Regional Weather Roundup
Issued by NWS

Home | Current Version | Previous Version | Graphics & Text | Print | Product List | Glossary On
Versions: 1 2 3 4 5 6 7 8 9 10 11 12 13 14 15 16 17 18 19 20 21 22 23 24 25 26 27 28 29 30 31 32 33 34 35 36 37 38 39 40 41 42 43 44 45 46 47 48 49 50
000
ASUS43 KLSX 180307
RWRMO

WEATHER SUMMARY FOR MISSOURI
NATIONAL WEATHER SERVICE SPRINGFIELD MO
1000 PM CDT TUE OCT 17 2017

NOTE: "FAIR" INDICATES FEW OR NO CLOUDS BELOW 12,000 FEET WITH NO
       SIGNIFICANT WEATHER AND/OR OBSTRUCTIONS TO VISIBILITY.
       CURRENT SKY AND/OR WEATHER CONDITIONS ARE NOT AVAILABLE FOR
       CHILLICOTHE AND FARMINGTON.

MOZ001>031-035>038-043-044-053-054-180400-
...NORTHERN AND WESTERN MISSOURI...

CITY           SKY/WX    TMP DP  RH WIND       PRES   REMARKS
KANSAS CTY INT CLEAR     54  47  77 S10       30.10R
KANSAS C DTWN  CLEAR     62  48  60 S9        30.10R
LEE`S SUMMIT   CLEAR     59  47  64 S12       30.12R
ST JOSEPH      CLEAR     59  49  69 S8        30.07R
CHILLICOTHE      N/A     55  47  74 S3        30.12R
KIRKSVILLE     CLEAR     50  46  86 S7        30.14R

$$
MOZ066>068-077>081-088>096-101>105-180400-
...SOUTHWEST MISSOURI...

CITY           SKY/WX    TMP DP  RH WIND       PRES   REMARKS
SPRINGFIELD    CLEAR     55  41  59 S10       30.17R
JOPLIN         CLEAR     53  46  77 S9        30.16S
BRANSON        CLEAR     54  39  58 CALM      30.20S

$$
MOZ032>034-039>042-045>050-055>058-069>072-180400-
...CENTRAL MISSOURI...

CITY           SKY/WX    TMP DP  RH WIND       PRES   REMARKS
COLUMBIA       CLEAR     54  43  66 S9        30.15F
JEFFERSON CITY CLEAR     54  44  69 SE5       30.16R
ROLLA          CLEAR     54  39  57 S9        30.19R
SEDALIA        CLEAR     56  46  69 S12       30.14S
WHITEMAN AFB   CLEAR     53  46  77 S7        30.09R
WARRENSBURG    CLEAR     54  45  71 SE6       30.12R

$$
MOZ051-052-059>065-180400-
...EAST CENTRAL MISSOURI...

CITY           SKY/WX    TMP DP  RH WIND       PRES   REMARKS
ST LOUIS INTL  CLEAR     59  40  49 S9        30.20R
SPIRIT OF STL  CLEAR     48  45  89 CALM      30.19R
ST CHARLES     CLEAR     51  41  68 NE3       30.19R

$$
MOZ072>076-082>087-097>100-106>115-180400-
...SOUTH CENTRAL AND SOUTHEAST MISSOURI...

CITY           SKY/WX    TMP DP  RH WIND       PRES   REMARKS
CAPE GIRARDEAU CLEAR     44  41  89 CALM      30.24R
FARMINGTON     CLEAR     49  41  74 CALM      30.23S
POPLAR BLUFF   CLEAR     46  44  93 CALM      30.24R
WEST PLAINS    CLEAR     53  39  59 S5        30.23R

$$



USA.gov is the U.S. government's official web portal to all federal, state and local government web resources and services.